Year,Month,Day,Hour,Minute,Value (Times are PST for windgust in km/hr)
2008,01,03,00,00,11.30
2008,01,03,00,01,8.10
2008,01,03,00,02,8.10
2008,01,03,00,03,8.10
2008,01,03,00,04,12.90
2008,01,03,00,05,9.60
2008,01,03,00,06,9.60
2008,01,03,00,07,11.30
2008,01,03,00,08,14.50
2008,01,03,00,09,6.40
2008,01,03,00,10,11.30
2008,01,03,00,11,8.10
2008,01,03,00,12,8.10
2008,01,03,00,13,8.10
2008,01,03,00,14,11.30
2008,01,03,00,15,9.60
2008,01,03,00,16,6.40
2008,01,03,00,17,9.60
2008,01,03,00,18,6.40
2008,01,03,00,19,6.40
2008,01,03,00,20,11.30
2008,01,03,00,21,17.70
2008,01,03,00,22,19.30
2008,01,03,00,23,12.90
2008,01,03,00,24,11.30
2008,01,03,00,25,9.60
2008,01,03,00,26,14.50
2008,01,03,00,27,11.30
2008,01,03,00,28,9.60
2008,01,03,00,29,8.10
2008,01,03,00,30,8.10
2008,01,03,00,31,6.40
2008,01,03,00,32,9.60
2008,01,03,00,33,12.90
2008,01,03,00,34,12.90
2008,01,03,00,35,14.50
2008,01,03,00,36,11.30
2008,01,03,00,37,9.60
2008,01,03,00,38,9.60
2008,01,03,00,39,12.90
2008,01,03,00,40,8.10
2008,01,03,00,41,16.10
2008,01,03,00,42,17.70
2008,01,03,00,43,11.30
2008,01,03,00,44,11.30
2008,01,03,00,45,9.60
2008,01,03,00,46,8.10
2008,01,03,00,47,12.90
2008,01,03,00,48,12.90
2008,01,03,00,49,11.30
2008,01,03,00,50,11.30
2008,01,03,00,51,14.50
2008,01,03,00,52,12.90
2008,01,03,00,53,12.90
2008,01,03,00,54,12.90
2008,01,03,00,55,9.60
2008,01,03,00,56,11.30
2008,01,03,00,57,6.40
2008,01,03,00,58,9.60
2008,01,03,00,59,12.90
2008,01,03,01,00,12.90
2008,01,03,01,01,14.50
2008,01,03,01,02,12.90
2008,01,03,01,03,9.60
2008,01,03,01,04,11.30
2008,01,03,01,05,11.30
2008,01,03,01,06,9.60
2008,01,03,01,07,14.50
2008,01,03,01,08,14.50
2008,01,03,01,09,14.50
2008,01,03,01,10,11.30
2008,01,03,01,11,12.90
2008,01,03,01,12,6.40
2008,01,03,01,13,9.60
2008,01,03,01,14,16.10
2008,01,03,01,15,9.60
2008,01,03,01,16,14.50
2008,01,03,01,17,14.50
2008,01,03,01,18,12.90
2008,01,03,01,19,14.50
2008,01,03,01,20,9.60
2008,01,03,01,21,14.50
2008,01,03,01,22,12.90
2008,01,03,01,23,19.30
2008,01,03,01,24,19.30
2008,01,03,01,25,12.90
2008,01,03,01,26,20.90
2008,01,03,01,27,9.60
2008,01,03,01,28,16.10
2008,01,03,01,29,14.50
2008,01,03,01,30,9.60
2008,01,03,01,31,9.60
2008,01,03,01,32,11.30
2008,01,03,01,33,24.20
2008,01,03,01,34,20.90
2008,01,03,01,35,12.90
2008,01,03,01,36,19.30
2008,01,03,01,37,19.30
2008,01,03,01,38,14.50
2008,01,03,01,39,17.70
2008,01,03,01,40,14.50
2008,01,03,01,41,20.90
2008,01,03,01,42,19.30
2008,01,03,01,43,12.90
2008,01,03,01,44,12.90
2008,01,03,01,45,16.10
2008,01,03,01,46,14.50
2008,01,03,01,47,12.90
2008,01,03,01,48,17.70
2008,01,03,01,49,17.70
2008,01,03,01,50,16.10
2008,01,03,01,51,17.70
2008,01,03,01,52,16.10
2008,01,03,01,53,16.10
2008,01,03,01,54,11.30
2008,01,03,01,55,17.70
2008,01,03,01,56,16.10
2008,01,03,01,57,16.10
2008,01,03,01,58,17.70
2008,01,03,01,59,20.90
2008,01,03,02,00,25.70
2008,01,03,02,01,32.20
2008,01,03,02,02,24.20
2008,01,03,02,03,17.70
2008,01,03,02,04,20.90
2008,01,03,02,05,20.90
2008,01,03,02,06,20.90
2008,01,03,02,07,19.30
2008,01,03,02,08,24.20
2008,01,03,02,09,24.20
2008,01,03,02,10,22.50
2008,01,03,02,11,20.90
2008,01,03,02,12,17.70
2008,01,03,02,13,24.20
2008,01,03,02,14,16.10
2008,01,03,02,15,25.70
2008,01,03,02,16,11.30
2008,01,03,02,17,9.60
2008,01,03,02,18,20.90
2008,01,03,02,19,20.90
2008,01,03,02,20,12.90
2008,01,03,02,21,16.10
2008,01,03,02,22,16.10
2008,01,03,02,23,30.60
2008,01,03,02,24,12.90
2008,01,03,02,25,16.10
2008,01,03,02,26,12.90
2008,01,03,02,27,16.10
2008,01,03,02,28,19.30
2008,01,03,02,29,14.50
2008,01,03,02,30,14.50
2008,01,03,02,31,14.50
2008,01,03,02,32,12.90
2008,01,03,02,33,12.90
2008,01,03,02,34,22.50
2008,01,03,02,35,16.10
2008,01,03,02,36,14.50
2008,01,03,02,37,29.00
2008,01,03,02,38,14.50
2008,01,03,02,39,12.90
2008,01,03,02,40,17.70
2008,01,03,02,41,17.70
2008,01,03,02,42,17.70
2008,01,03,02,43,20.90
2008,01,03,02,44,11.30
2008,01,03,02,45,25.70
2008,01,03,02,46,12.90
2008,01,03,02,47,14.50
2008,01,03,02,48,16.10
2008,01,03,02,49,20.90
2008,01,03,02,50,19.30
2008,01,03,02,51,12.90
2008,01,03,02,52,22.50
2008,01,03,02,53,14.50
2008,01,03,02,54,17.70
2008,01,03,02,55,11.30
2008,01,03,02,56,17.70
2008,01,03,02,57,12.90
2008,01,03,02,58,11.30
2008,01,03,02,59,20.90
2008,01,03,03,00,17.70
2008,01,03,03,01,22.50
2008,01,03,03,02,22.50
2008,01,03,03,03,22.50
2008,01,03,03,04,16.10
2008,01,03,03,05,14.50
2008,01,03,03,06,11.30
2008,01,03,03,07,25.70
2008,01,03,03,08,25.70
2008,01,03,03,09,30.60
2008,01,03,03,10,30.60
2008,01,03,03,11,17.70
2008,01,03,03,12,22.50
2008,01,03,03,13,25.70
2008,01,03,03,14,29.00
2008,01,03,03,15,29.00
2008,01,03,03,16,20.90
2008,01,03,03,17,20.90
2008,01,03,03,18,20.90
2008,01,03,03,19,16.10
2008,01,03,03,20,16.10
2008,01,03,03,21,22.50
2008,01,03,03,22,20.90
2008,01,03,03,23,20.90
2008,01,03,03,24,24.20
2008,01,03,03,25,16.10
2008,01,03,03,26,16.10
2008,01,03,03,27,20.90
2008,01,03,03,28,19.30
2008,01,03,03,29,19.30
2008,01,03,03,30,17.70
2008,01,03,03,31,14.50
2008,01,03,03,32,22.50
2008,01,03,03,33,17.70
2008,01,03,03,34,20.90
2008,01,03,03,35,14.50
2008,01,03,03,36,11.30
2008,01,03,03,37,19.30
2008,01,03,03,38,20.90
2008,01,03,03,39,19.30
2008,01,03,03,40,22.50
2008,01,03,03,41,19.30
2008,01,03,03,42,22.50
2008,01,03,03,43,11.30
2008,01,03,03,44,14.50
2008,01,03,03,45,16.10
2008,01,03,03,46,19.30
2008,01,03,03,47,22.50
2008,01,03,03,48,20.90
2008,01,03,03,49,22.50
2008,01,03,03,50,16.10
2008,01,03,03,51,14.50
2008,01,03,03,52,19.30
2008,01,03,03,53,11.30
2008,01,03,03,54,20.90
2008,01,03,03,55,19.30
2008,01,03,03,56,22.50
2008,01,03,03,57,14.50
2008,01,03,03,58,14.50
2008,01,03,03,59,11.30
2008,01,03,04,00,19.30
2008,01,03,04,01,11.30
2008,01,03,04,02,14.50
2008,01,03,04,03,16.10
2008,01,03,04,04,22.50
2008,01,03,04,05,11.30
2008,01,03,04,06,20.90
2008,01,03,04,07,17.70
2008,01,03,04,08,12.90
2008,01,03,04,09,14.50
2008,01,03,04,10,17.70
2008,01,03,04,11,12.90
2008,01,03,04,12,20.90
2008,01,03,04,13,12.90
2008,01,03,04,14,24.20
2008,01,03,04,15,12.90
2008,01,03,04,16,16.10
2008,01,03,04,17,16.10
2008,01,03,04,18,16.10
2008,01,03,04,19,20.90
2008,01,03,04,20,17.70
2008,01,03,04,21,20.90
2008,01,03,04,22,16.10
2008,01,03,04,23,24.20
2008,01,03,04,24,16.10
2008,01,03,04,25,22.50
2008,01,03,04,26,17.70
2008,01,03,04,27,14.50
2008,01,03,04,28,14.50
2008,01,03,04,29,14.50
2008,01,03,04,30,17.70
2008,01,03,04,31,9.60
2008,01,03,04,32,8.10
2008,01,03,04,33,11.30
2008,01,03,04,34,17.70
2008,01,03,04,35,16.10
2008,01,03,04,36,17.70
2008,01,03,04,37,24.20
2008,01,03,04,38,9.60
2008,01,03,04,39,16.10
2008,01,03,04,40,17.70
2008,01,03,04,41,17.70
2008,01,03,04,42,17.70
2008,01,03,04,43,19.30
2008,01,03,04,44,19.30
2008,01,03,04,45,12.90
2008,01,03,04,46,19.30
2008,01,03,04,47,19.30
2008,01,03,04,48,14.50
2008,01,03,04,49,19.30
2008,01,03,04,50,9.60
2008,01,03,04,51,12.90
2008,01,03,04,52,11.30
2008,01,03,04,53,9.60
2008,01,03,04,54,12.90
2008,01,03,04,55,9.60
2008,01,03,04,56,11.30
2008,01,03,04,57,17.70
2008,01,03,04,58,11.30
2008,01,03,04,59,14.50
2008,01,03,05,00,16.10
2008,01,03,05,01,22.50
2008,01,03,05,02,20.90
2008,01,03,05,03,16.10
2008,01,03,05,04,12.90
2008,01,03,05,05,11.30
2008,01,03,05,06,16.10
2008,01,03,05,07,9.60
2008,01,03,05,08,14.50
2008,01,03,05,09,16.10
2008,01,03,05,10,8.10
2008,01,03,05,11,12.90
2008,01,03,05,12,14.50
2008,01,03,05,13,11.30
2008,01,03,05,14,9.60
2008,01,03,05,15,11.30
2008,01,03,05,16,12.90
2008,01,03,05,17,14.50
2008,01,03,05,18,14.50
2008,01,03,05,19,11.30
2008,01,03,05,20,17.70
2008,01,03,05,21,17.70
2008,01,03,05,22,12.90
2008,01,03,05,23,19.30
2008,01,03,05,24,19.30
2008,01,03,05,25,16.10
2008,01,03,05,26,16.10
2008,01,03,05,27,14.50
2008,01,03,05,28,12.90
2008,01,03,05,29,9.60
2008,01,03,05,30,9.60
2008,01,03,05,31,6.40
2008,01,03,05,32,9.60
2008,01,03,05,33,11.30
2008,01,03,05,34,9.60
2008,01,03,05,35,12.90
2008,01,03,05,36,9.60
2008,01,03,05,37,9.60
2008,01,03,05,38,14.50
2008,01,03,05,39,9.60
2008,01,03,05,40,12.90
2008,01,03,05,41,9.60
2008,01,03,05,42,8.10
2008,01,03,05,43,16.10
2008,01,03,05,44,14.50
2008,01,03,05,45,14.50
2008,01,03,05,46,8.10
2008,01,03,05,47,11.30
2008,01,03,05,48,9.60
2008,01,03,05,49,17.70
2008,01,03,05,50,17.70
2008,01,03,05,51,11.30
2008,01,03,05,52,8.10
2008,01,03,05,53,12.90
2008,01,03,05,54,17.70
2008,01,03,05,55,16.10
2008,01,03,05,56,17.70
2008,01,03,05,57,12.90
2008,01,03,05,58,9.60
2008,01,03,05,59,9.60
2008,01,03,06,00,12.90
2008,01,03,06,01,8.10
2008,01,03,06,02,8.10
2008,01,03,06,03,11.30
2008,01,03,06,04,12.90
2008,01,03,06,05,11.30
2008,01,03,06,06,11.30
2008,01,03,06,07,14.50
2008,01,03,06,08,14.50
2008,01,03,06,09,16.10
2008,01,03,06,10,14.50
2008,01,03,06,11,17.70
2008,01,03,06,12,14.50
2008,01,03,06,13,14.50
2008,01,03,06,14,12.90
2008,01,03,06,15,22.50
2008,01,03,06,16,11.30
2008,01,03,06,17,11.30
2008,01,03,06,18,9.60
2008,01,03,06,19,12.90
2008,01,03,06,20,11.30
2008,01,03,06,21,9.60
2008,01,03,06,22,9.60
2008,01,03,06,23,12.90
2008,01,03,06,24,8.10
2008,01,03,06,25,12.90
2008,01,03,06,26,11.30
2008,01,03,06,27,9.60
2008,01,03,06,28,6.40
2008,01,03,06,29,17.70
2008,01,03,06,30,11.30
2008,01,03,06,31,14.50
2008,01,03,06,32,14.50
2008,01,03,06,33,14.50
2008,01,03,06,34,9.60
2008,01,03,06,35,9.60
2008,01,03,06,36,9.60
2008,01,03,06,37,9.60
2008,01,03,06,38,11.30
2008,01,03,06,39,16.10
2008,01,03,06,40,14.50
2008,01,03,06,41,12.90
2008,01,03,06,42,16.10
2008,01,03,06,43,14.50
2008,01,03,06,44,14.50
2008,01,03,06,45,12.90
2008,01,03,06,46,11.30
2008,01,03,06,47,6.40
2008,01,03,06,48,14.50
2008,01,03,06,49,16.10
2008,01,03,06,50,17.70
2008,01,03,06,51,14.50
2008,01,03,06,52,8.10
2008,01,03,06,53,11.30
2008,01,03,06,54,8.10
2008,01,03,06,55,9.60
2008,01,03,06,56,11.30
2008,01,03,06,57,8.10
2008,01,03,06,58,8.10
2008,01,03,06,59,6.40
2008,01,03,07,00,8.10
2008,01,03,07,01,6.40
2008,01,03,07,02,4.80
2008,01,03,07,03,9.60
2008,01,03,07,04,11.30
2008,01,03,07,05,9.60
2008,01,03,07,06,9.60
2008,01,03,07,07,8.10
2008,01,03,07,08,9.60
2008,01,03,07,09,9.60
2008,01,03,07,10,6.40
2008,01,03,07,11,8.10
2008,01,03,07,12,11.30
2008,01,03,07,13,6.40
2008,01,03,07,14,11.30
2008,01,03,07,15,8.10
2008,01,03,07,16,6.40
2008,01,03,07,17,8.10
2008,01,03,07,18,9.60
2008,01,03,07,19,14.50
2008,01,03,07,20,9.60
2008,01,03,07,21,8.10
2008,01,03,07,22,6.40
2008,01,03,07,23,12.90
2008,01,03,07,24,12.90
2008,01,03,07,25,11.30
2008,01,03,07,26,12.90
2008,01,03,07,27,12.90
2008,01,03,07,28,17.70
2008,01,03,07,29,11.30
2008,01,03,07,30,12.90
2008,01,03,07,31,17.70
2008,01,03,07,32,11.30
2008,01,03,07,33,9.60
2008,01,03,07,34,11.30
2008,01,03,07,35,11.30
2008,01,03,07,36,9.60
2008,01,03,07,37,8.10
2008,01,03,07,38,12.90
2008,01,03,07,39,16.10
2008,01,03,07,40,16.10
2008,01,03,07,41,11.30
2008,01,03,07,42,8.10
2008,01,03,07,43,14.50
2008,01,03,07,44,12.90
2008,01,03,07,45,12.90
2008,01,03,07,46,6.40
2008,01,03,07,47,9.60
2008,01,03,07,48,8.10
2008,01,03,07,49,9.60
2008,01,03,07,50,11.30
2008,01,03,07,51,9.60
2008,01,03,07,52,8.10
2008,01,03,07,53,11.30
2008,01,03,07,54,11.30
2008,01,03,07,55,8.10
2008,01,03,07,56,8.10
2008,01,03,07,57,8.10
2008,01,03,07,58,11.30
2008,01,03,07,59,12.90
2008,01,03,08,00,9.60
2008,01,03,08,01,8.10
2008,01,03,08,02,8.10
2008,01,03,08,03,8.10
2008,01,03,08,04,8.10
2008,01,03,08,05,16.10
2008,01,03,08,06,11.30
2008,01,03,08,07,11.30
2008,01,03,08,08,11.30
2008,01,03,08,09,11.30
2008,01,03,08,10,11.30
2008,01,03,08,11,14.50
2008,01,03,08,12,8.10
2008,01,03,08,13,14.50
2008,01,03,08,14,14.50
2008,01,03,08,15,14.50
2008,01,03,08,16,17.70
2008,01,03,08,17,19.30
2008,01,03,08,18,17.70
2008,01,03,08,19,17.70
2008,01,03,08,20,8.10
2008,01,03,08,21,16.10
2008,01,03,08,22,16.10
2008,01,03,08,23,16.10
2008,01,03,08,24,12.90
2008,01,03,08,25,14.50
2008,01,03,08,26,16.10
2008,01,03,08,27,14.50
2008,01,03,08,28,11.30
2008,01,03,08,29,14.50
2008,01,03,08,30,22.50
2008,01,03,08,31,9.60
2008,01,03,08,32,16.10
2008,01,03,08,33,11.30
2008,01,03,08,34,22.50
2008,01,03,08,35,25.70
2008,01,03,08,36,19.30
2008,01,03,08,37,16.10
2008,01,03,08,38,22.50
2008,01,03,08,39,22.50
2008,01,03,08,40,24.20
2008,01,03,08,41,25.70
2008,01,03,08,42,19.30
2008,01,03,08,43,9.60
2008,01,03,08,44,16.10
2008,01,03,08,45,16.10
2008,01,03,08,46,12.90
2008,01,03,08,47,17.70
2008,01,03,08,48,20.90
2008,01,03,08,49,20.90
2008,01,03,08,50,12.90
2008,01,03,08,51,12.90
2008,01,03,08,52,20.90
2008,01,03,08,53,16.10
2008,01,03,08,54,14.50
2008,01,03,08,55,14.50
2008,01,03,08,56,12.90
2008,01,03,08,57,20.90
2008,01,03,08,58,16.10
2008,01,03,08,59,17.70
2008,01,03,09,00,16.10
2008,01,03,09,01,14.50
2008,01,03,09,02,16.10
2008,01,03,09,03,17.70
2008,01,03,09,04,11.30
2008,01,03,09,05,19.30
2008,01,03,09,06,12.90
2008,01,03,09,07,12.90
2008,01,03,09,08,12.90
2008,01,03,09,09,14.50
2008,01,03,09,10,17.70
2008,01,03,09,11,14.50
2008,01,03,09,12,16.10
2008,01,03,09,13,30.60
2008,01,03,09,14,14.50
2008,01,03,09,15,24.20
2008,01,03,09,16,17.70
2008,01,03,09,17,16.10
2008,01,03,09,18,16.10
2008,01,03,09,19,24.20
2008,01,03,09,20,19.30
2008,01,03,09,21,24.20
2008,01,03,09,22,17.70
2008,01,03,09,23,12.90
2008,01,03,09,24,16.10
2008,01,03,09,25,19.30
2008,01,03,09,26,17.70
2008,01,03,09,27,19.30
2008,01,03,09,28,16.10
2008,01,03,09,29,16.10
2008,01,03,09,30,12.90
2008,01,03,09,31,16.10
2008,01,03,09,32,14.50
2008,01,03,09,33,20.90
2008,01,03,09,34,19.30
2008,01,03,09,35,19.30
2008,01,03,09,36,16.10
2008,01,03,09,37,11.30
2008,01,03,09,38,14.50
2008,01,03,09,39,20.90
2008,01,03,09,40,17.70
2008,01,03,09,41,17.70
2008,01,03,09,42,19.30
2008,01,03,09,43,19.30
2008,01,03,09,44,19.30
2008,01,03,09,45,12.90
2008,01,03,09,46,14.50
2008,01,03,09,47,9.60
2008,01,03,09,48,16.10
2008,01,03,09,49,17.70
2008,01,03,09,50,20.90
2008,01,03,09,51,17.70
2008,01,03,09,52,19.30
2008,01,03,09,53,14.50
2008,01,03,09,54,19.30
2008,01,03,09,55,16.10
2008,01,03,09,56,24.20
2008,01,03,09,57,20.90
2008,01,03,09,58,22.50
2008,01,03,09,59,19.30
2008,01,03,10,00,32.20
2008,01,03,10,01,20.90
2008,01,03,10,02,20.90
2008,01,03,10,03,22.50
2008,01,03,10,04,17.70
2008,01,03,10,05,22.50
2008,01,03,10,06,16.10
2008,01,03,10,07,12.90
2008,01,03,10,08,14.50
2008,01,03,10,09,17.70
2008,01,03,10,10,22.50
2008,01,03,10,11,22.50
2008,01,03,10,12,30.60
2008,01,03,10,13,22.50
2008,01,03,10,14,19.30
2008,01,03,10,15,20.90
2008,01,03,10,16,14.50
2008,01,03,10,17,20.90
2008,01,03,10,18,17.70
2008,01,03,10,19,30.60
2008,01,03,10,20,22.50
2008,01,03,10,21,16.10
2008,01,03,10,22,14.50
2008,01,03,10,23,25.70
2008,01,03,10,24,24.20
2008,01,03,10,25,16.10
2008,01,03,10,26,12.90
2008,01,03,10,27,19.30
2008,01,03,10,28,20.90
2008,01,03,10,29,17.70
2008,01,03,10,30,19.30
2008,01,03,10,31,20.90
2008,01,03,10,32,20.90
2008,01,03,10,33,14.50
2008,01,03,10,34,11.30
2008,01,03,10,35,22.50
2008,01,03,10,36,20.90
2008,01,03,10,37,17.70
2008,01,03,10,38,16.10
2008,01,03,10,39,14.50
2008,01,03,10,40,19.30
2008,01,03,10,41,19.30
2008,01,03,10,42,17.70
2008,01,03,10,43,16.10
2008,01,03,10,44,25.70
2008,01,03,10,45,20.90
2008,01,03,10,46,12.90
2008,01,03,10,47,12.90
2008,01,03,10,49,19.30
2008,01,03,10,50,22.50
2008,01,03,10,51,16.10
2008,01,03,10,52,14.50
2008,01,03,10,53,16.10
2008,01,03,10,54,12.90
2008,01,03,10,55,12.90
2008,01,03,10,56,20.90
2008,01,03,10,57,9.60
2008,01,03,10,58,12.90
2008,01,03,10,59,17.70
2008,01,03,11,00,22.50
2008,01,03,11,01,17.70
2008,01,03,11,02,17.70
2008,01,03,11,03,20.90
2008,01,03,11,04,19.30
2008,01,03,11,05,11.30
2008,01,03,11,06,20.90
2008,01,03,11,07,17.70
2008,01,03,11,08,17.70
2008,01,03,11,09,20.90
2008,01,03,11,10,24.20
2008,01,03,11,11,17.70
2008,01,03,11,12,17.70
2008,01,03,11,13,22.50
2008,01,03,11,14,17.70
2008,01,03,11,15,22.50
2008,01,03,11,16,22.50
2008,01,03,11,17,14.50
2008,01,03,11,18,19.30
2008,01,03,11,19,11.30
2008,01,03,11,20,19.30
2008,01,03,11,21,20.90
2008,01,03,11,22,16.10
2008,01,03,11,23,16.10
2008,01,03,11,24,16.10
2008,01,03,11,25,22.50
2008,01,03,11,26,14.50
2008,01,03,11,27,19.30
2008,01,03,11,28,25.70
2008,01,03,11,29,17.70
2008,01,03,11,30,16.10
2008,01,03,11,31,17.70
2008,01,03,11,32,25.70
2008,01,03,11,33,16.10
2008,01,03,11,34,17.70
2008,01,03,11,35,12.90
2008,01,03,11,36,19.30
2008,01,03,11,37,12.90
2008,01,03,11,38,22.50
2008,01,03,11,39,22.50
2008,01,03,11,40,17.70
2008,01,03,11,41,16.10
2008,01,03,11,42,12.90
2008,01,03,11,43,17.70
2008,01,03,11,44,20.90
2008,01,03,11,45,22.50
2008,01,03,11,46,25.70
2008,01,03,11,47,24.20
2008,01,03,11,48,20.90
2008,01,03,11,49,19.30
2008,01,03,11,50,12.90
2008,01,03,11,51,12.90
2008,01,03,11,52,14.50
2008,01,03,11,53,16.10
2008,01,03,11,54,12.90
2008,01,03,11,55,14.50
2008,01,03,11,56,25.70
2008,01,03,11,57,17.70
2008,01,03,11,58,20.90
2008,01,03,11,59,25.70
2008,01,03,12,00,32.20
2008,01,03,12,01,22.50
2008,01,03,12,02,20.90
2008,01,03,12,03,17.70
2008,01,03,12,04,25.70
2008,01,03,12,05,20.90
2008,01,03,12,06,25.70
2008,01,03,12,07,25.70
2008,01,03,12,08,19.30
2008,01,03,12,09,22.50
2008,01,03,12,10,17.70
2008,01,03,12,11,19.30
2008,01,03,12,12,20.90
2008,01,03,12,13,22.50
2008,01,03,12,14,24.20
2008,01,03,12,15,16.10
2008,01,03,12,16,35.40
2008,01,03,12,17,17.70
2008,01,03,12,18,22.50
2008,01,03,12,19,22.50
2008,01,03,12,20,22.50
2008,01,03,12,21,16.10
2008,01,03,12,22,22.50
2008,01,03,12,23,24.20
2008,01,03,12,24,17.70
2008,01,03,12,25,40.20
2008,01,03,12,26,41.80
2008,01,03,12,27,17.70
2008,01,03,12,28,32.20
2008,01,03,12,29,29.00
2008,01,03,12,30,17.70
2008,01,03,12,31,22.50
2008,01,03,12,32,22.50
2008,01,03,12,33,20.90
2008,01,03,12,34,32.20
2008,01,03,12,35,24.20
2008,01,03,12,36,19.30
2008,01,03,12,37,48.30
2008,01,03,12,38,32.20
2008,01,03,12,39,20.90
2008,01,03,12,40,22.50
2008,01,03,12,41,12.90
2008,01,03,12,42,14.50
2008,01,03,12,43,19.30
2008,01,03,12,44,29.00
2008,01,03,12,45,22.50
2008,01,03,12,46,32.20
2008,01,03,12,47,22.50
2008,01,03,12,48,29.00
2008,01,03,12,49,33.80
2008,01,03,12,50,14.50
2008,01,03,12,51,16.10
2008,01,03,12,52,30.60
2008,01,03,12,53,22.50
2008,01,03,12,54,22.50
2008,01,03,12,55,19.30
2008,01,03,12,56,29.00
2008,01,03,12,57,32.20
2008,01,03,12,58,29.00
2008,01,03,12,59,29.00
2008,01,03,13,00,17.70
2008,01,03,13,01,32.20
2008,01,03,13,02,33.80
2008,01,03,13,03,40.20
2008,01,03,13,04,24.20
2008,01,03,13,05,24.20
2008,01,03,13,06,35.40
2008,01,03,13,07,35.40
2008,01,03,13,08,29.00
2008,01,03,13,09,22.50
2008,01,03,13,10,35.40
2008,01,03,13,11,32.20
2008,01,03,13,12,20.90
2008,01,03,13,13,30.60
2008,01,03,13,14,20.90
2008,01,03,13,15,37.00
2008,01,03,13,16,25.70
2008,01,03,13,17,41.80
2008,01,03,13,18,33.80
2008,01,03,13,19,29.00
2008,01,03,13,20,24.20
2008,01,03,13,21,24.20
2008,01,03,13,22,33.80
2008,01,03,13,23,54.70
2008,01,03,13,24,35.40
2008,01,03,13,25,33.80
2008,01,03,13,26,22.50
2008,01,03,13,27,29.00
2008,01,03,13,28,40.20
2008,01,03,13,29,20.90
2008,01,03,13,30,24.20
2008,01,03,13,31,35.40
2008,01,03,13,32,38.60
2008,01,03,13,33,35.40
2008,01,03,13,34,24.20
2008,01,03,13,35,30.60
2008,01,03,13,36,37.00
2008,01,03,13,37,32.20
2008,01,03,13,38,24.20
2008,01,03,13,39,20.90
2008,01,03,13,40,37.00
2008,01,03,13,41,32.20
2008,01,03,13,42,22.50
2008,01,03,13,43,29.00
2008,01,03,13,44,46.70
2008,01,03,13,45,17.70
2008,01,03,13,46,22.50
2008,01,03,13,47,24.20
2008,01,03,13,48,33.80
2008,01,03,13,49,37.00
2008,01,03,13,50,33.80
2008,01,03,13,51,33.80
2008,01,03,13,52,19.30
2008,01,03,13,53,38.60
2008,01,03,13,54,33.80
2008,01,03,13,55,29.00
2008,01,03,13,56,32.20
2008,01,03,13,57,30.60
2008,01,03,13,58,33.80
2008,01,03,13,59,32.20
2008,01,03,14,00,11.30
2008,01,03,14,01,40.20
2008,01,03,14,02,32.20
2008,01,03,14,03,40.20
2008,01,03,14,04,24.20
2008,01,03,14,05,24.20
2008,01,03,14,06,25.70
2008,01,03,14,07,24.20
2008,01,03,14,08,29.00
2008,01,03,14,09,22.50
2008,01,03,14,10,17.70
2008,01,03,14,11,41.80
2008,01,03,14,12,30.60
2008,01,03,14,13,30.60
2008,01,03,14,14,33.80
2008,01,03,14,15,30.60
2008,01,03,14,16,40.20
2008,01,03,14,17,38.60
2008,01,03,14,18,19.30
2008,01,03,14,19,24.20
2008,01,03,14,20,19.30
2008,01,03,14,21,25.70
2008,01,03,14,22,22.50
2008,01,03,14,23,33.80
2008,01,03,14,24,32.20
2008,01,03,14,25,19.30
2008,01,03,14,26,16.10
2008,01,03,14,27,30.60
2008,01,03,14,28,25.70
2008,01,03,14,29,25.70
2008,01,03,14,30,35.40
2008,01,03,14,31,16.10
2008,01,03,14,32,25.70
2008,01,03,14,33,25.70
2008,01,03,14,34,29.00
2008,01,03,14,35,32.20
2008,01,03,14,36,22.50
2008,01,03,14,37,22.50
2008,01,03,14,38,33.80
2008,01,03,14,39,30.60
2008,01,03,14,40,29.00
2008,01,03,14,41,20.90
2008,01,03,14,42,30.60
2008,01,03,14,43,17.70
2008,01,03,14,44,17.70
2008,01,03,14,45,30.60
2008,01,03,14,46,16.10
2008,01,03,14,47,19.30
2008,01,03,14,48,14.50
2008,01,03,14,49,14.50
2008,01,03,14,50,19.30
2008,01,03,14,51,16.10
2008,01,03,14,52,17.70
2008,01,03,14,53,14.50
2008,01,03,14,54,22.50
2008,01,03,14,55,22.50
2008,01,03,14,56,25.70
2008,01,03,14,57,30.60
2008,01,03,14,58,29.00
2008,01,03,14,59,32.20
2008,01,03,15,00,24.20
2008,01,03,15,01,16.10
2008,01,03,15,02,19.30
2008,01,03,15,03,14.50
2008,01,03,15,04,14.50
2008,01,03,15,05,9.60
2008,01,03,15,06,16.10
2008,01,03,15,07,14.50
2008,01,03,15,08,19.30
2008,01,03,15,09,25.70
2008,01,03,15,10,25.70
2008,01,03,15,11,20.90
2008,01,03,15,12,17.70
2008,01,03,15,13,22.50
2008,01,03,15,14,16.10
2008,01,03,15,15,11.30
2008,01,03,15,16,17.70
2008,01,03,15,17,29.00
2008,01,03,15,18,17.70
2008,01,03,15,19,14.50
2008,01,03,15,20,14.50
2008,01,03,15,21,17.70
2008,01,03,15,22,12.90
2008,01,03,15,23,14.50
2008,01,03,15,24,17.70
2008,01,03,15,25,22.50
2008,01,03,15,26,14.50
2008,01,03,15,27,11.30
2008,01,03,15,28,11.30
2008,01,03,15,29,12.90
2008,01,03,15,30,19.30
2008,01,03,15,31,19.30
2008,01,03,15,32,16.10
2008,01,03,15,33,12.90
2008,01,03,15,34,14.50
2008,01,03,15,35,17.70
2008,01,03,15,36,19.30
2008,01,03,15,37,19.30
2008,01,03,15,38,12.90
2008,01,03,15,39,12.90
2008,01,03,15,40,16.10
2008,01,03,15,41,16.10
2008,01,03,15,42,14.50
2008,01,03,15,43,11.30
2008,01,03,15,44,30.60
2008,01,03,15,45,20.90
2008,01,03,15,46,32.20
2008,01,03,15,47,32.20
2008,01,03,15,48,22.50
2008,01,03,15,49,17.70
2008,01,03,15,50,32.20
2008,01,03,15,51,30.60
2008,01,03,15,52,25.70
2008,01,03,15,53,29.00
2008,01,03,15,54,20.90
2008,01,03,15,55,24.20
2008,01,03,15,56,16.10
2008,01,03,15,57,11.30
2008,01,03,15,58,11.30
2008,01,03,15,59,20.90
2008,01,03,16,00,17.70
2008,01,03,16,01,14.50
2008,01,03,16,02,20.90
2008,01,03,16,03,24.20
2008,01,03,16,04,11.30
2008,01,03,16,05,14.50
2008,01,03,16,06,16.10
2008,01,03,16,07,17.70
2008,01,03,16,08,17.70
2008,01,03,16,09,20.90
2008,01,03,16,10,16.10
2008,01,03,16,11,19.30
2008,01,03,16,12,12.90
2008,01,03,16,13,16.10
2008,01,03,16,14,17.70
2008,01,03,16,15,25.70
2008,01,03,16,16,30.60
2008,01,03,16,17,20.90
2008,01,03,16,18,19.30
2008,01,03,16,19,29.00
2008,01,03,16,20,24.20
2008,01,03,16,21,12.90
2008,01,03,16,22,20.90
2008,01,03,16,23,19.30
2008,01,03,16,24,22.50
2008,01,03,16,25,46.70
2008,01,03,16,26,43.50
2008,01,03,16,27,37.00
2008,01,03,16,28,30.60
2008,01,03,16,29,53.10
2008,01,03,16,30,51.50
2008,01,03,16,31,29.00
2008,01,03,16,32,30.60
2008,01,03,16,33,35.40
2008,01,03,16,34,38.60
2008,01,03,16,35,24.20
2008,01,03,16,36,19.30
2008,01,03,16,37,19.30
2008,01,03,16,38,35.40
2008,01,03,16,39,46.70
2008,01,03,16,40,20.90
2008,01,03,16,41,22.50
2008,01,03,16,42,25.70
2008,01,03,16,43,32.20
2008,01,03,16,44,33.80
2008,01,03,16,45,32.20
2008,01,03,16,46,35.40
2008,01,03,16,47,33.80
2008,01,03,16,48,29.00
2008,01,03,16,49,30.60
2008,01,03,16,50,37.00
2008,01,03,16,51,25.70
2008,01,03,16,52,29.00
2008,01,03,16,53,38.60
2008,01,03,16,54,35.40
2008,01,03,16,55,38.60
2008,01,03,16,56,22.50
2008,01,03,16,57,30.60
2008,01,03,16,58,56.30
2008,01,03,16,59,41.80
2008,01,03,17,00,41.80
2008,01,03,17,01,38.60
2008,01,03,17,02,41.80
2008,01,03,17,03,43.50
2008,01,03,17,04,38.60
2008,01,03,17,05,32.20
2008,01,03,17,06,33.80
2008,01,03,17,07,30.60
2008,01,03,17,08,46.70
2008,01,03,17,09,43.50
2008,01,03,17,10,25.70
2008,01,03,17,11,49.90
2008,01,03,17,12,25.70
2008,01,03,17,13,46.70
2008,01,03,17,14,37.00
2008,01,03,17,15,38.60
2008,01,03,17,16,69.20
2008,01,03,17,17,54.70
2008,01,03,17,18,41.80
2008,01,03,17,19,46.70
2008,01,03,17,20,40.20
2008,01,03,17,21,45.10
2008,01,03,17,22,66.00
2008,01,03,17,23,37.00
2008,01,03,17,24,38.60
2008,01,03,17,25,43.50